Content
SEND FEEDBACK

Daily
Averages
Monthly
Summary
United States of America

NORFOLK, VIRGINIA


Home > North America > United States > Virginia
Elevation: 14 feet     Latitude: 36 54N     Longitude: 076 12W

WEATHER
 
SELECT A DAY
Number of Records: 95,154;   Date Range: 1/1/95 - 12/20/14
 
SHARE

PRINT THIS DATA

[ ← Previous Day ]
WEATHER ALMANAC - SEPTEMBER 1, 2013
[ Next Day → ]
[ °C ]   °F
Weather ElementAverageHighLow
Temperature80.4 °F91 °F (12:51 pm)73.9 °F (11:51 pm)
Dewpoint72.2 °F73.9 °F (6:51 pm)70 °F (5:51 pm)
Humidity77.3 %94 % (8:51 pm)53 % (12:51 pm)
Barometer29.85 in29.89 in (1:51 am)29.80 in (4:51 pm)
Wind Speed10.7 mph17.3 mph (5:51 pm)
Wind Gust19.6 mph (1:51 pm)
Weather ElementAverage
Visibility9.7 mi
Wind DirectionSSW (211.3 °)

Weather ElementTotal
Precipitation0.10 in
Cooling Degree Days17.5 (Base 65)
Growing Degree Days32.5 (Base 50)
Averaged from 23 records on September 1, 2013
WEATHER CONDITIONS BREAKOUT
WIND DIRECTION BREAKOUT
WEATHER BY HOUR - SEPTEMBER 1, 2013
[ °C ]   °F
Local TimeTemperatureDewpointHumidityBarometerVisibilityWind DirectionWind SpeedGust SpeedPrecipitationEventsConditions
1:51 AM75.9 °F72.0 °F87 %29.89 in10.0 miSouth (190°)6.9 mphClear
2:51 AM75.9 °F72.0 °F87 %29.87 in10.0 miSSW (210°)9.2 mphClear
3:51 AM75.9 °F72.0 °F87 %29.86 in10.0 miSSW (210°)11.5 mphPartly Cloudy
4:51 AM75.0 °F72.0 °F90 %29.86 in10.0 miSW (220°)11.5 mphMostly Cloudy
5:51 AM75.0 °F72.0 °F90 %29.86 in10.0 miSW (220°)10.4 mphClear
6:51 AM75.0 °F72.0 °F90 %29.88 in10.0 miSSW (210°)9.2 mphPartly Cloudy
7:51 AM75.9 °F72.0 °F87 %29.88 in10.0 miSSW (200°)6.9 mphPartly Cloudy
8:51 AM79.0 °F72.0 °F79 %29.89 in10.0 miSW (230°)10.4 mphClear
9:51 AM82.0 °F73.0 °F74 %29.89 in10.0 miSSW (200°)8.1 mphMostly Cloudy
10:51 AM86.0 °F73.0 °F65 %29.89 in10.0 miSW (230°)11.5 mphOvercast
11:51 AM87.1 °F72.0 °F61 %29.87 in10.0 miSW (220°)11.5 mphMostly Cloudy
12:51 PM91.0 °F72.0 °F53 %29.85 in10.0 miSW (220°)11.5 mphPartly Cloudy
1:51 PM91.0 °F72.0 °F53 %29.84 in10.0 miSouth (190°)15.0 mph19.6 mphMostly Cloudy
2:51 PM90.0 °F73.0 °F57 %29.82 in10.0 miSW (220°)15.0 mphPartly Cloudy
3:51 PM90.0 °F72.0 °F55 %29.81 in10.0 miSouth (190°)12.7 mphClear
4:51 PM90.0 °F72.0 °F55 %29.80 in10.0 miSSW (200°)15.0 mphPartly Cloudy
5:51 PM82.9 °F70.0 °F65 %29.81 in10.0 miSSW (200°)17.3 mphClear
6:51 PM77.0 °F73.9 °F90 %29.83 in4.0 miWSW (240°)11.5 mph19.6 mph0.02 inRainRain
7:51 PM75.9 °F73.0 °F91 %29.81 in10.0 miSSW (210°)6.9 mph0.08 inRainLight Rain
8:51 PM75.9 °F73.9 °F94 %29.82 in10.0 miSSW (210°)8.1 mph0.00 inClear
9:51 PM75.0 °F72.0 °F90 %29.84 in10.0 miSSW (210°)8.1 mphMostly Cloudy
10:51 PM75.0 °F71.1 °F87 %29.86 in9.0 miSW (220°)9.2 mphOvercast
11:51 PM73.9 °F71.1 °F91 %29.84 in10.0 miSSW (210°)8.1 mph0.00 inClear
Hourly data recorded from KORF, located miles away from Norfolk, Virginia







STORIES FROM OUR PARTNERS